User: anonymous   Login
Location: Unspecified
(0.0000°N, 0.0000°E)
Time: 06:22:04
(UTC+00:00)
Language:

ALMASAT-1 - Orbit

View from above orbital plane
View from above orbital plane
View from above satellite
View from above satellite

Ground track
Ground track

The orbit data is extracted from the following two-line orbital elements,

1 38078U 12006B   18116.86205038  .00021455  38598-5  19611-3 0  9990
2 38078  69.4361 358.4749 0253279 184.5077 302.7387 15.37465233332756
Epoch (UTC): 26 April 2018 20:41:21
Eccentricity: 0.0253279
inclination: 69.4361°
perigee height: 280 km
apogee height: 626 km
right ascension of ascending node: 358.4749°
argument of perigee: 184.5077°
revolutions per day: 15.37465233
mean anomaly at epoch: 302.7387°
orbit number at epoch: 33275

The dashed part of the orbit path shows where the satellite is in the earth's shadow,  

DLR